Regional Weather Roundup
Issued by NWS Wakefield, VA

Home | Current Version | Previous Version | Graphics & Text | Print | Product List | Glossary On
Versions: 1 2 3 4 5 6 7 8 9 10 11 12 13 14 15 16 17 18 19 20 21 22 23 24 25 26 27 28 29 30 31 32 33 34 35 36 37 38 39 40 41 42 43 44 45 46 47 48 49 50
000
ASUS41 KAKQ 192115
RWRAKQ

REGIONAL WEATHER ROUNDUP
NATIONAL WEATHER SERVICE WAKEFIELD VA
500 PM EDT SAT AUG 19 2017

Note: "fair" indicates few or no clouds below 12,000 feet with no
significant weather and/or obstructions to visibility. * = Denotes
station may not report precipitation (e.g., rain,snow,etc.),
thunder or fog.

VAZ042-051-052>054-056-192200-
NORTHERN VIRGINIA

CITY           SKY/WX    TMP DP  RH WIND       PRES   REMARKS
WASH NATIONAL  MOSUNNY   90  66  45 SW8       29.88F
DULLES         SUNNY     88  66  48 W3        29.88F
FORT BELVOIR   SUNNY     89  64  43 CALM      29.88F
QUANTICO       SUNNY     87  70  56 S7        29.89F
FREDERICKSBRG* MOSUNNY   90  69  49 S5        29.88F
STAFFORD*      SUNNY     88  64  45 W3        29.93F
WARRENTON      SUNNY     91  61  36 S3        29.89S
CULPEPER*      SUNNY     90  65  43 CALM      29.89F
MANASSAS*      SUNNY     88  65  46 W6        29.89F
LEESBURG*      SUNNY     88  68  51 NW6       29.89F
WINCHESTER     SUNNY     84  63  48 SW6       29.89F
FRONT ROYAL*   CLEAR     88  63  42 W3        29.89F
LURAY*         PTCLDY    88  63  42 SW7       29.91F
$$

VAZ048-049-060>072-079>083-192200-
CENTRAL AND SOUTH CENTRAL VIRGINIA

CITY           SKY/WX    TMP DP  RH WIND       PRES   REMARKS
RICHMOND       MOSUNNY   87  67  51 CALM      29.91R
CHESTERFIELD*  CLOUDY    89  70  53 VRB5      29.92R
PETERSBURG*    MOSUNNY   88  65  46 S3        29.92R
HANOVER        SUNNY     89  66  46 VRB3      29.91F
TAPPAHANNOCK*  MOSUNNY   89  58  34 CALM      29.92R
QUINTON*       FAIR      86  69  56 CALM      29.91R
CHARLOTTSVILLE SUNNY     90  61  37 W3        29.90F
GORDONSVILLE*  CLEAR     89  63  41 CALM      29.90S
ORANGE*        SUNNY     88  59  37 CALM      29.90F
LOUISA*        SUNNY     88  64  45 CALM      29.90F
BUMPASS*       FAIR      87  68  52 S6        29.90S
FARMVILLE*     SUNNY     92  50  23 CALM      29.91S
CREWE*         FAIR      86  64  46 SE3       29.93R
FORT PICKETT*  MOCLDY   N/A N/A N/A W6        29.93S
CHASE CITY*    FAIR      89  63  42 CALM      29.94R
CLARKSVILLE*   FAIR      88  64  45 W3        29.93S
SOUTH HILL*    PTSUNNY   87  71  57 SW5       29.99R
LAWRENCEVILLE* MOCLDY    85  70  59 CALM      29.93R
EMPORIA*       SUNNY     88  70  55 SW6       29.93R
$$

VAZ088>098-192200-
SOUTHEAST VIRGINIA

CITY           SKY/WX    TMP DP  RH WIND       PRES   REMARKS
NORFOLK        SUNNY     86  70  58 NE9       29.91R
VIRGINIA BEACH MOSUNNY   87  68  52 E7        29.90S
NORFOLK NAVAL  MOSUNNY   89  65  44 NE9       29.93R
WEST POINT*    SUNNY     89  65  44 CALM      29.91F
SALUDA*        FAIR      85  72  65 E6        29.91S
NEWPORT NEWS   SUNNY     86  68  54 E5        29.91S
LANGLEY AFB    SUNNY     86  69  55 NE8       29.91S
FORT EUSTIS    PTSUNNY   94  74  51 E3        29.89S HX 104
WILLIAMSBURG*  MOSUNNY   91  75  59 CALM      29.91F HX 102
HR EXEC AP*    FAIR      88  72  58 NE3         N/A
FRANKLIN*      SUNNY     85  73  67 E5        29.92R
US460-WAKEFLD  SUNNY     89  72  56 VRB3      29.91S HX  96
$$

VAZ020-022-025-037-045-192200-
WEST CENTRAL AND SOUTHWEST VIRGINIA

CITY           SKY/WX    TMP DP  RH WIND       PRES   REMARKS
STAUNTON*      MOSUNNY   85  62  45 SE5       29.95F
WAYNESBORO*    CLEAR     86  61  42 CALM      29.96F
HOT SPRINGS VA SUNNY     77  54  44 CALM      30.11S
LYNCHBURG      SUNNY     89  59  36 CALM      29.94S
DANVILLE       SUNNY     89  65  44 CALM      29.94S
SOUTH BOSTON*  FAIR      89  64  42 CALM      29.94R
MARTINSVILLE   SUNNY     88  63  43 CALM      29.98S
ROANOKE        MOSUNNY   90  58  33 S3        29.96F
BLACKSBURG     SUNNY     83  59  44 W3        30.05F
DUBLIN*        SUNNY     85  59  40 SW6       30.03F
MARION*        MOSUNNY   81  54  38 W8        30.08F
HILLSVILLE*    SUNNY     81  56  41 CALM      30.05F
RICHLANDS*     FAIR      80  59  50 W6        30.07F
WISE*          MOSUNNY   81  61  50 CALM      30.08F
ABINGDON*      SUNNY     84  65  52 NW6       30.05S
$$

MDZ021>025-VAZ099-100-192200-
SOUTHERN MARYLAND AND THE DELMARVA PENINSULA

CITY           SKY/WX    TMP DP  RH WIND       PRES   REMARKS
PATUXENT RIVER MOSUNNY   83  71  67 SE7       29.89F
BAY BRIDGE APT SUNNY     88  70  55 S5        29.87F
LEONARDTOWN    MOSUNNY   86  66  51 W5        29.91S
DOVER          SUNNY     86  64  48 W7        29.87F
GEORGETOWN     SUNNY     88  66  48 W8        29.89S
EASTON         NOT AVBL
CAMBRIDGE      SUNNY     86  70  58 CALM      29.89F
SALISBURY      PTSUNNY   88  70  55 W8        29.89S
OCEAN CITY     SUNNY     83  75  77 SE7       29.90R
WALLOPS ISLAND MOSUNNY   89  72  56 MISG      29.90S HX  96
ACCOMACK*      SUNNY     85  71  64 NW6       29.91S
$$

NCZ012>017-030>032-192200-
NORTH CENTRAL AND EASTERN NORTH CAROLINA

CITY           SKY/WX    TMP DP  RH WIND       PRES   REMARKS
ROANOKE RAPIDS FAIR      90  70  51 W7        29.92R HX  95
RALEIGH        MOSUNNY   92  65  40 NW5       29.93S
ELIZABETH CITY HVY RAIN  83  78  85 E10       29.91R
AHOSKIE*         N/A     85  74  70 CALM      29.92R
EDENTON*       CLOUDY    90  74  59 CALM      29.92R HX  99
CURRITUCK*     CLOUDY    84  72  68 CALM      29.92S
KILL DEVIL HLS CLOUDY    85  75  71 CALM      29.90S
MANTEO         CLOUDY    86  76  72 S6        29.92R HX  96
CAPE HATTERAS  LGT RAIN  78  74  87 SW10G20   29.94R
TARBORO*       NOT AVBL
GOLDSBORO      MOSUNNY   86  77  75 VRB3      29.92S HX  97
WASHINGTON     CLOUDY    83  76  80 CALM      29.93R
GREENVILLE     CLOUDY    86  72  62 W3        29.95S
NEW BERN       LGT RAIN  75  74  96 N5        29.97R FOG
WILMINGTON     TSTM      75  74  96 SW3       29.96S FOG
$$

VAZ048-192200-
ELSEWHERE

CITY           SKY/WX    TMP DP  RH WIND       PRES   REMARKS
HARRISBURG PA  MOSUNNY   87  66  49 SW6       29.85F
BALTIMORE      MOSUNNY   88  68  51 VRB5      29.87F
ANNAPOLIS      MOSUNNY   88  73  61 S5        29.87F HX  95
ANDREWS AFB    MOSUNNY   87  66  50 S9        29.88F
PHILADELPHIA   MOSUNNY   87  62  43 W10       29.85F
HENDERSON NC   SUNNY     86  63  45 NW7       29.94S
GREENSBORO     MOSUNNY   89  66  46 NW9       29.96R
ROCKY MOUNT    CLOUDY    90  68  48 CALM      29.93R
$$

VAZ100-192200-
MARINE

STATION/POSITION TIME  TEMP    WIND        PRES    WAVE   SWELL
                       AIR SEA DIR/SP/G            HT/PER HT/PER
                 (UTC) (F)     (DEG/KT/KT) (MB)    (FT/S) (FT/S)
BRANDYWINE LGT   2042   84      CALM  /  1 1012.3S
CAPE MAY NJ      2048   82 81  250/  5/  5 1011.4S
LEWES DE         2048   82 78   10/  3/  4 1011.7S
15NM E FENWICK I 2050   81 79   CALM  /  2 1012.4F   2/ 6   2/ 6
OCEAN-CITY-INLET 2048   82 77  140/  4/  6 1012.6S
WACHAPREAGUE VA  2048   88 86  300/  2/  7 1012.7R
THOMAS POINT MD  2100   82 81  170/ 10/ 11   N/A
GOOSES REEF MD   2100   84 82  190/  6/  6 1012.7    0
COVE POINT MD    2048   82     180/  8/  9 1012.9F
SOLOMONS ISLAND  2048   84 82  130/  4/  5   N/A
BISHOPS HEAD MD  2048   85 85  220/  4/  4 1012.5F
PINEY POINT MD   2048          320/  4/  5   N/A
POTOMAC MD       2100   84 85  170/  2/  4 1011.7    0
CAMBRIDGE MD     2042   88 84              1013.2F
LEWISETTA VA     2048   84 83   90/  2/  3 1012.4F
RAPPAHANNOCK LGT 2048          350/  5/  6 1013.5F
STINGRAY PT      2100   84 83   80/  6/  8 1013.2    1
YORK RVR RNG VA  2048   83      70/  9/ 10 1013.3R
YORKTOWN VA      2048   84 83   90/  8/  9 1012.5S
JAMESTOWN VA     2100      87  190/  2/  4   N/A     0
DOMINION TERM VA 2048   85     110/  6/ 10 1012.8F
KIPTOPEKE VA     2048      82  330/  9/ 10   N/A
CHES BAY BRIDGE  2048   81 80   40/  8/  9 1012.8R
CAPE HENRY VA    2048   81     350/  7/  8   N/A
WILLOUBY STN VA  2048   83      40/  8/  8 1013.0S
S CRANEY ISL VA  2048   85      50/  8/  9 1012.5F
CAPE HENRY BUOY  2100      81                N/A     2/ 5
1ST LANDING BUOY 2100   82 81              1012.5    1/ 3
64NM E OF VA BCH 2050   79 79  300/  4/  4 1013.3R   3/ 6   3/ 6
DUCK PIER NC     2048   82 77   50/  6/  7 1012.6R
44100 DUCK FRF   2005      84                N/A     2/ 8
44056 DUCK FRF   2100      82                N/A     2/ 8
OREGON INLET NC  2036   81 86  170/  8/ 13 1012.8S
HATTERAS NC      2048   78 83  220/ 10/ 15 1014.0R
DIAMOND SHLS NC  2050   82 84  260/  8/ 12 1013.9R   4/ 4   3/ 4
CAPE LOOKOUT NC  2100   77     310/ 11/ 13 1014.6R
$$



USA.gov is the U.S. government's official web portal to all federal, state and local government web resources and services.